LAPAN-A3

Last updated on Sat Jun 21 2025 00:02:28 GMT+0000 (Coordinated Universal Time)

1 41603U 16040E 25171.55424473 .00002856 00000+0 10094-3 0 9992 2 41603 97.1367 175.7311 0009606 222.9278 137.1214 15.29927745499469
UTC large
Height (km)
Speed (km/s)
/
Latitude / Longitude
Inclination (degrees)
Orbital Period (minutes)
Azimuth
Elevation
Range (km)
Doppler Factor

Next 0 passes for location: London (51.5072 / 0.1276)

Sorry there are no passes over London.